• In Uzbekistan
  • List of Countries
  • For 7 days
  • Water Temperature
  • Satellite Maps
  • Weather Map
  • Weather Widgets
  • user-avatar
    Login

    Hourly Weather Asuan

    Today, 24 November, Friday

    Time Temperature Precipitation Wind Pressure Humidity
    00:00 +16°C° 0 mm 5 mps 746 mmHg 40%
    01:00 +16°C° 0 mm 5 mps 746 mmHg 43%
    02:00 +15°C° 0 mm 5 mps 746 mmHg 45%
    03:00 +15°C° 0 mm 5 mps 746 mmHg 47%
    04:00 +15°C° 0 mm 4 mps 746 mmHg 48%
    05:00 +14°C° 0 mm 4 mps 746 mmHg 50%
    06:00 +15°C° 0 mm 4 mps 746 mmHg 49%
    07:00 +16°C° 0 mm 5 mps 746 mmHg 47%
    08:00 +17°C° 0 mm 5 mps 746 mmHg 44%
    09:00 +19°C° 0 mm 5 mps 746 mmHg 40%
    10:00 +21°C° 0 mm 5 mps 746 mmHg 36%
    11:00 +22°C° 0 mm 5 mps 746 mmHg 32%
    12:00 +23°C° 0 mm 4 mps 746 mmHg 30%
    13:00 +25°C° 0 mm 4 mps 745 mmHg 27%
    14:00 +25°C° 0 mm 4 mps 745 mmHg 25%
    15:00 +25°C° 0 mm 4 mps 745 mmHg 26%
    16:00 +24°C° 0 mm 3 mps 744 mmHg 28%
    17:00 +22°C° 0 mm 3 mps 744 mmHg 29%
    18:00 +22°C° 0 mm 3 mps 745 mmHg 31%
    19:00 +21°C° 0 mm 3 mps 745 mmHg 33%
    20:00 +20°C° 0 mm 4 mps 745 mmHg 35%
    21:00 +20°C° 0 mm 4 mps 745 mmHg 36%
    22:00 +19°C° 0 mm 4 mps 746 mmHg 38%
    23:00 +19°C° 0 mm 4 mps 746 mmHg 39%

    Tomorrow, 25 November, Saturday

    Time Temperature Precipitation Wind Pressure Humidity
    00:00 +19°C° 0 mm 4 mps 746 mmHg 42%
    01:00 +18°C° 0 mm 3 mps 746 mmHg 45%
    02:00 +18°C° 0 mm 3 mps 745 mmHg 48%
    03:00 +18°C° 0 mm 3 mps 745 mmHg 51%
    04:00 +17°C° 0 mm 3 mps 745 mmHg 55%
    05:00 +17°C° 0 mm 3 mps 745 mmHg 58%
    06:00 +18°C° 0 mm 3 mps 745 mmHg 55%
    07:00 +19°C° 0 mm 3 mps 746 mmHg 53%
    08:00 +20°C° 0 mm 3 mps 746 mmHg 50%
    09:00 +21°C° 0 mm 3 mps 746 mmHg 44%
    10:00 +22°C° 0 mm 3 mps 746 mmHg 39%
    11:00 +25°C° 0 mm 3 mps 746 mmHg 33%
    12:00 +26°C° 0 mm 3 mps 745 mmHg 31%
    13:00 +26°C° 0 mm 2 mps 745 mmHg 29%
    14:00 +27°C° 0 mm 2 mps 744 mmHg 26%
    15:00 +26°C° 0 mm 2 mps 744 mmHg 27%
    16:00 +26°C° 0 mm 2 mps 744 mmHg 28%
    17:00 +25°C° 0 mm 2 mps 744 mmHg 28%
    18:00 +24°C° 0 mm 3 mps 745 mmHg 29%
    19:00 +22°C° 0 mm 3 mps 745 mmHg 29%
    20:00 +21°C° 0 mm 3 mps 746 mmHg 30%
    21:00 +21°C° 0 mm 3 mps 746 mmHg 30%
    22:00 +20°C° 0 mm 4 mps 746 mmHg 31%
    23:00 +20°C° 0 mm 4 mps 746 mmHg 31%

    Day after tomorrow, 26 November, Sunday

    Time Temperature Precipitation Wind Pressure Humidity
    00:00 +19°C° 0 mm 4 mps 746 mmHg 33%
    01:00 +19°C° 0 mm 4 mps 746 mmHg 35%
    02:00 +19°C° 0 mm 4 mps 746 mmHg 36%
    03:00 +18°C° 0 mm 4 mps 746 mmHg 38%
    04:00 +18°C° 0 mm 4 mps 746 mmHg 39%
    05:00 +17°C° 0 mm 4 mps 746 mmHg 40%
    06:00 +18°C° 0 mm 4 mps 746 mmHg 38%
    07:00 +19°C° 0 mm 4 mps 747 mmHg 36%
    08:00 +20°C° 0 mm 4 mps 747 mmHg 34%
    09:00 +21°C° 0 mm 4 mps 747 mmHg 31%
    10:00 +23°C° 0 mm 5 mps 747 mmHg 27%
    11:00 +25°C° 0 mm 5 mps 747 mmHg 24%
    12:00 +26°C° 0 mm 5 mps 747 mmHg 23%
    13:00 +27°C° 0 mm 5 mps 746 mmHg 22%
    14:00 +27°C° 0 mm 5 mps 746 mmHg 21%
    15:00 +26°C° 0 mm 4 mps 746 mmHg 23%
    16:00 +26°C° 0 mm 4 mps 746 mmHg 25%
    17:00 +25°C° 0 mm 4 mps 746 mmHg 27%
    18:00 +23°C° 0 mm 4 mps 746 mmHg 30%
    19:00 +22°C° 0 mm 4 mps 747 mmHg 33%
    20:00 +21°C° 0 mm 5 mps 747 mmHg 36%
    21:00 +20°C° 0 mm 5 mps 747 mmHg 38%
    22:00 +20°C° 0 mm 5 mps 747 mmHg 41%
    23:00 +19°C° 0 mm 5 mps 747 mmHg 44%

    27 November, Monday

    Time Temperature Precipitation Wind Pressure Humidity
    00:00 +19°C° 0 mm 5 mps 747 mmHg 46%
    01:00 +17°C° 0 mm 5 mps 747 mmHg 48%
    02:00 +17°C° 0 mm 5 mps 747 mmHg 49%
    03:00 +17°C° 0 mm 4 mps 747 mmHg 50%
    04:00 +17°C° 0 mm 4 mps 747 mmHg 50%
    05:00 +17°C° 0 mm 4 mps 747 mmHg 51%
    06:00 +17°C° 0 mm 4 mps 747 mmHg 48%
    07:00 +18°C° 0 mm 4 mps 748 mmHg 45%
    08:00 +19°C° 0 mm 5 mps 748 mmHg 42%
    09:00 +20°C° 0 mm 5 mps 748 mmHg 38%
    10:00 +22°C° 0 mm 5 mps 748 mmHg 33%
    11:00 +25°C° 0 mm 5 mps 748 mmHg 29%
    12:00 +25°C° 0 mm 4 mps 747 mmHg 27%
    13:00 +26°C° 0 mm 4 mps 746 mmHg 25%
    14:00 +27°C° 0 mm 4 mps 745 mmHg 23%
    15:00 +26°C° 0 mm 4 mps 745 mmHg 24%
    16:00 +25°C° 0 mm 4 mps 745 mmHg 26%
    17:00 +24°C° 0 mm 3 mps 745 mmHg 27%
    18:00 +22°C° 0 mm 4 mps 746 mmHg 29%
    19:00 +22°C° 0 mm 4 mps 746 mmHg 31%
    20:00 +21°C° 0 mm 4 mps 747 mmHg 32%
    21:00 +20°C° 0 mm 4 mps 747 mmHg 34%
    22:00 +20°C° 0 mm 4 mps 747 mmHg 37%
    23:00 +19°C° 0 mm 4 mps 747 mmHg 39%

    28 November, Tuesday

    Time Temperature Precipitation Wind Pressure Humidity
    00:00 +19°C° 0 mm 4 mps 746 mmHg 42%
    01:00 +18°C° 0 mm 4 mps 746 mmHg 45%
    02:00 +18°C° 0 mm 4 mps 746 mmHg 48%
    03:00 +18°C° 0 mm 4 mps 746 mmHg 49%
    04:00 +17°C° 0 mm 4 mps 746 mmHg 50%
    05:00 +17°C° 0 mm 4 mps 746 mmHg 52%
    06:00 +18°C° 0 mm 4 mps 746 mmHg 49%
    07:00 +19°C° 0 mm 4 mps 747 mmHg 47%
    08:00 +19°C° 0 mm 4 mps 747 mmHg 44%
    09:00 +21°C° 0 mm 4 mps 747 mmHg 40%
    10:00 +23°C° 0 mm 4 mps 747 mmHg 35%
    11:00 +25°C° 0 mm 4 mps 746 mmHg 30%
    12:00 +26°C° 0 mm 4 mps 746 mmHg 28%
    13:00 +27°C° 0 mm 3 mps 745 mmHg 26%
    14:00 +27°C° 0 mm 3 mps 744 mmHg 23%
    15:00 +26°C° 0 mm 3 mps 744 mmHg 24%
    16:00 +26°C° 0 mm 3 mps 744 mmHg 25%
    17:00 +25°C° 0 mm 3 mps 744 mmHg 26%
    18:00 +24°C° 0 mm 3 mps 745 mmHg 28%
    19:00 +22°C° 0 mm 3 mps 745 mmHg 30%
    20:00 +21°C° 0 mm 3 mps 746 mmHg 32%
    21:00 +21°C° 0 mm 4 mps 746 mmHg 32%
    22:00 +20°C° 0 mm 4 mps 746 mmHg 33%
    23:00 +20°C° 0 mm 4 mps 746 mmHg 34%

    29 November, Wednesday

    Time Temperature Precipitation Wind Pressure Humidity
    00:00 +19°C° 0 mm 4 mps 746 mmHg 36%
    01:00 +19°C° 0 mm 4 mps 746 mmHg 37%
    02:00 +18°C° 0 mm 4 mps 745 mmHg 39%
    03:00 +18°C° 0 mm 4 mps 745 mmHg 41%
    04:00 +18°C° 0 mm 4 mps 746 mmHg 43%
    05:00 +17°C° 0 mm 3 mps 746 mmHg 44%
    06:00 +18°C° 0 mm 3 mps 746 mmHg 42%
    07:00 +19°C° 0 mm 3 mps 747 mmHg 40%
    08:00 +20°C° 0 mm 3 mps 747 mmHg 38%
    09:00 +21°C° 0 mm 4 mps 747 mmHg 34%
    10:00 +23°C° 0 mm 4 mps 747 mmHg 30%
    11:00 +25°C° 0 mm 4 mps 747 mmHg 25%
    12:00 +26°C° 0 mm 4 mps 746 mmHg 23%
    13:00 +27°C° 0 mm 4 mps 746 mmHg 22%
    14:00 +28°C° 0 mm 4 mps 745 mmHg 20%
    15:00 +27°C° 0 mm 4 mps 745 mmHg 21%
    16:00 +26°C° 0 mm 4 mps 745 mmHg 22%
    17:00 +25°C° 0 mm 4 mps 746 mmHg 23%
    18:00 +23°C° 0 mm 4 mps 746 mmHg 25%
    19:00 +22°C° 0 mm 4 mps 746 mmHg 26%
    20:00 +21°C° 0 mm 4 mps 747 mmHg 27%
    21:00 +21°C° 0 mm 4 mps 747 mmHg 29%
    22:00 +20°C° 0 mm 5 mps 747 mmHg 30%
    23:00 +20°C° 0 mm 5 mps 747 mmHg 31%
    Show more